Location: Newark
(47.3000°N, 8.0500°E)
Time: 19:03:53
(UTC+00:00)

OTV 5 (USA 277) - Pass Details

Date: 02 September 2019
Orbit: 295 x 339 km, 54.5° (Epoch: 08 September)

Event Time Altitude Azimuth Distance (km) Brightness Sun altitude
Rises 20:05:41 0° 300° (WNW) 2,001 ? -19.2°
Reaches altitude 10° 20:08:00 10° 322° (NW) 1,170 ? -19.5°
Maximum altitude 20:09:54 18° 9° (N) 836 ? -19.7°
Enters shadow 20:10:01 18° 13° (NNE) 838 ? -19.8°
